Regional Weather Roundup
Issued by NWS

Home | Current Version | Previous Version | Text Only | Print | Product List | Glossary On
Versions: 1 2 3 4 5 6 7 8 9 10 11 12 13 14 15 16 17 18 19 20 21 22 23 24 25 26 27 28 29 30 31 32 33 34 35 36 37 38 39 40 41 42 43 44 45 46 47 48 49 50
000
ASUS46 KSTO 031709
RWRCA

NORTHERN AND CENTRAL CA REGIONAL WEATHER ROUNDUP
NATIONAL WEATHER SERVICE SACRAMENTO CA
1000 AM PDT SUN MAY 03 2015

NOTE: FAIR INDICATES FEW OR NO CLOUDS BELOW 12,000 FEET WITH NO
SIGNIFICANT WEATHER AND/OR OBSTRUCTIONS TO VISIBILITY.

CAZ001-003-031800-
NORTHWEST AREA

CITY           SKY/WX    TMP DP  RH WIND       PRES   REMARKS
CRESCENT CITY  CLOUDY    50  47  89 W5        29.91S
ARCATA         NOT AVBL
SHELTER COVE   NOT AVBL
UKIAH          SUNNY     58  48  69 CALM      29.87S
$$

CAZ006-505>513-031800-
BAY AREA

CITY           SKY/WX    TMP DP  RH WIND       PRES   REMARKS
SANTA ROSA     CLOUDY    51  48  89 CALM      29.89R FOG
SAN RAFAEL     N/A       51  MM  MM MISG
NAPA           CLOUDY    52  48  86 W6        29.90R
CONCORD        SUNNY     61  47  59 W5        29.87S
OAKLAND CITY   N/A       57  MM  MM MISG
OAKLAND        CLOUDY    56  47  71 SW5       29.90S
SAN FRAN CITY  N/A       55  MM  72 MISG
SAN FRAN ARPT  MOSUNNY   59  48  67 NE7       29.90R
LIVERMORE      SUNNY     63  49  60 NW8       29.88R
HAYWARD        CLOUDY    57  49  74 SW5       29.90R
REDWOOD CITY   N/A       MM  MM  MM MISG
MOFFETT ARPT   SUNNY    N/A N/A N/A N5        29.90S
SAN JOSE ARPT  MOSUNNY   60  47  61 SE7       29.89S
$$
CAZ034-037-514>518-031800-
CENTRAL COAST

CITY           SKY/WX    TMP DP  RH WIND       PRES   REMARKS
WATSONVILLE    CLOUDY    55  47  74 S9        29.93R
SALINAS        CLOUDY    59  47  64 CALM      29.92R
MONTEREY       CLOUDY    55  45  68 W6        29.93R
PT PIEDRAS BLS NOT AVBL
SAN LUIS OBISP CLOUDY    55  47  74 SE7       29.95R
SANTA MARIA    PTSUNNY   60  46  59 VRB3      29.96R
$$
CAZ015-016-031800-
NORTHERN SACRAMENTO VALLEY

CITY           SKY/WX    TMP DP  RH WIND       PRES   REMARKS
REDDING        SUNNY     72  49  44 VRB3      29.83R
RED BLUFF      SUNNY     70  50  49 E6        29.84S
OROVILLE       SUNNY     66  47  50 S3        29.86S
$$
CAZ016>018-031800-
SOUTHERN SACRAMENTO VALLEY

CITY           SKY/WX    TMP DP  RH WIND       PRES   REMARKS
AUBURN         SUNNY     72  39  30 S5        29.86R
BEALE AFB      SUNNY     66  47  51 S5        29.83S
LINCOLN        FAIR      66  45  45 S7        29.83S
MARYSVILLE     SUNNY     66  47  50 S9        29.85R
SAC INTL ARPT  SUNNY     62  49  62 S12       29.84R
MATHER AIRPORT SUNNY     63  48  59 SW7       29.85
DOWNTOWN SAC   N/A       63  MM  MM MISG
SAC EXEC ARPT  SUNNY     62  50  64 S9        29.85R
VACAVILLE      SUNNY     67  48  50 VRB3      29.85R
TRAVIS AFB     SUNNY     60  49  66 SW21G28   29.83R
$$
CAZ019>021-031800-
SAN JOAQUIN VALLEY

CITY           SKY/WX    TMP DP  RH WIND       PRES   REMARKS
STOCKTON       SUNNY     66  50  56 NW5       29.85S
MODESTO        SUNNY     68  47  46 VRB5      29.84S
MERCED         SUNNY     67  44  43 SE5       29.83S
LEMOORE        SUNNY     71  39  31 N3        29.86S
FRESNO         MOSUNNY   74  39  28 CALM      29.85S
HANFORD        SUNNY     74  41  30 CALM      29.85S
PORTERVILLE    SUNNY     75  28  17 CALM      29.86S
BAKERSFIELD    SUNNY     77  29  17 CALM      29.84S
$$
CAZ011-012-071-031800-
NORTHERN MOUNTAINS

CITY           SKY/WX    TMP DP  RH WIND       PRES   REMARKS
YREKA          SUNNY     63  39  41 CALM      29.90F
MOUNT SHASTA   SUNNY     69  41  36 VRB3      29.90S
ALTURAS        SUNNY     63  37  38 CALM      29.94F
$$
CAZ011-012-071-031800-
SIERRA NEVADA MTNS

CITY           SKY/WX    TMP DP  RH WIND       PRES   REMARKS
BLUE CANYON    SUNNY     61  22  22 VRB7      30.01R
TRUCKEE        SUNNY     54  32  43 CALM      30.02F
TAHOE VLY ARPT SUNNY     60  30  32 VRB5      30.01F
MAMMOTH LAKES  FAIR      61  25  25 SE3       30.04F
$$



USA.gov is the U.S. government's official web portal to all federal, state and local government web resources and services.